Greenville, AL

8:49 AM CDT on October 19, 2017 (GMT -0500)
Greenville Municipal

Weather History for KPRN - June, 2013

Change the Weather History Date:

Friday, June 28, 2013

  Actual Average Record
Temperature  
Mean Temperature 82 °F -  
Max Temperature 93 °F 90 °F 108 °F (1954)
Min Temperature 71 °F 68 °F 57 °F (1968)
Cooling Degree Days 17    
Growing Degree Days 32 (Base 50)    
Moisture  
Dew Point 72 °F    
Average Humidity 84    
Maximum Humidity 94    
Minimum Humidity 52    
Precipitation  
Precipitation 0.66 in - - ()
Sea Level Pressure  
Sea Level Pressure 29.83 in    
Wind  
Wind Speed 5 mph (WSW)    
Max Wind Speed 20 mph    
Max Gust Speed 40 mph    
Visibility 9 miles    
Events Rain , Thunderstorm    
Averages and records for this station are not official NWS values.
T = Trace of Precipitation, MM = Missing Value Source: NWS Daily Summary

Daily Weather History Graph

Daily Weather History Graph

Search for Another Location

Airport or City:

Trip Planner

Search our weather history database for the weather conditions in past years. The results will help you decide how hot, cold, wet, or windy it might be!

Date:

Astronomy

Jun. 28, 2013 Rise Set
Actual Time 5:43 AM CDT 7:56 PM CDT
Civil Twilight 5:15 AM CDT 8:24 PM CDT
Nautical Twilight 4:40 AM CDT 8:58 PM CDT
Astronomical Twilight 4:03 AM CDT 9:35 PM CDT
Moon 11:49 PM CDT (6/28) 11:27 AM CDT (6/28)
Length of Visible Light 15h 09m
Length of Day
14h 12m
Waning Gibbous, 66% of the Moon is Illuminated
Jun 28
Waning Gibbous
Jun 29
Last Quarter
Jul 8
New
Jul 15
First Quarter
Jul 22
Full

Hourly Weather History & Observations

Time (CDT) Temp. Heat Index Dew Point Humidity Pressure Visibility Wind Dir Wind Speed Gust Speed Precip Events Conditions
1:05 AM 80.6 °F 85.4 °F 73.4 °F 79% 29.91 in 10.0 mi WSW 3.5 mph - N/A   Clear
1:56 AM 82.0 °F 86.7 °F 72.0 °F 71% 29.87 in 10.0 mi North 3.5 mph - N/A   Scattered Clouds
2:56 AM 78.1 °F - 73.0 °F 84% 29.85 in 10.0 mi South 3.5 mph - N/A   Scattered Clouds
3:56 AM 78.1 °F - 72.0 °F 81% 29.85 in 10.0 mi SSW 3.5 mph - N/A   Clear
4:56 AM 75.9 °F - 73.0 °F 91% 29.87 in 10.0 mi SSW 3.5 mph - N/A   Clear
5:56 AM 75.9 °F - 72.0 °F 87% 29.89 in 10.0 mi WSW 4.6 mph - N/A   Clear
6:56 AM 77.0 °F - 73.0 °F 88% 29.89 in 10.0 mi WSW 5.8 mph - N/A   Clear
7:56 AM 81.0 °F 85.8 °F 73.0 °F 77% 29.89 in 10.0 mi West 6.9 mph - N/A   Scattered Clouds
8:56 AM 84.9 °F 92.1 °F 73.9 °F 69% 29.87 in 10.0 mi Variable 6.9 mph - N/A   Partly Cloudy
9:56 AM 88.0 °F 98.5 °F 75.9 °F 67% 29.85 in 10.0 mi West 8.1 mph - N/A   Clear
10:56 AM 91.0 °F 102.9 °F 75.9 °F 61% 29.86 in 10.0 mi West 9.2 mph - N/A   Partly Cloudy
11:56 AM 91.9 °F 103.2 °F 75.0 °F 58% 29.84 in 10.0 mi West 8.1 mph - N/A   Scattered Clouds
12:56 PM 93.0 °F 101.9 °F 73.0 °F 52% 29.81 in 10.0 mi WSW 4.6 mph - N/A   Partly Cloudy
1:56 PM 81.0 °F 83.8 °F 68.0 °F 65% 29.82 in 10.0 mi North 19.6 mph 40.3 mph N/A Thunderstorm Unknown
2:08 PM 78.8 °F - 69.8 °F 74% 29.88 in 10.0 mi NW 10.4 mph 21.9 mph N/A Thunderstorm Thunderstorm
2:31 PM 73.4 °F - 69.8 °F 88% 29.87 in 2.0 mi SSW 13.8 mph 19.6 mph 0.06 in Rain , Thunderstorm Heavy Thunderstorms and Rain
2:40 PM 73.4 °F - 69.8 °F 88% 29.86 in 7.0 mi SSW 6.9 mph 18.4 mph 0.07 in Rain , Thunderstorm Light Thunderstorms and Rain
2:56 PM 73.0 °F - 71.1 °F 93% 29.84 in 10.0 mi Calm Calm - 0.07 in Rain , Thunderstorm Light Thunderstorms and Rain
3:18 PM 73.4 °F - 71.6 °F 94% 29.82 in 7.0 mi SW 3.5 mph - 0.00 in Rain , Thunderstorm Light Thunderstorms and Rain
3:39 PM 73.4 °F - 71.6 °F 94% 29.80 in 6.0 mi Calm Calm - 0.01 in Rain Light Rain
3:56 PM 73.9 °F - 72.0 °F 93% 29.78 in 6.0 mi Calm Calm - 0.02 in Rain Light Rain
4:33 PM 73.4 °F - 71.6 °F 94% 29.79 in 10.0 mi SSW 3.5 mph - 0.01 in Rain , Thunderstorm Light Thunderstorms and Rain
4:48 PM 75.2 °F - 71.6 °F 89% 29.79 in 10.0 mi Calm Calm - 0.01 in Rain Light Rain
4:56 PM 75.0 °F - 72.0 °F 90% 29.78 in 10.0 mi SSW 8.1 mph - 0.01 in   Clear
5:56 PM 75.0 °F - 71.1 °F 87% 29.77 in 10.0 mi South 3.5 mph - N/A   Clear
6:56 PM 75.0 °F - 71.1 °F 87% 29.77 in 10.0 mi Calm Calm - N/A   Clear
7:56 PM 73.9 °F - 71.1 °F 91% 29.78 in 10.0 mi Calm Calm - N/A   Clear
8:56 PM 73.9 °F - 71.1 °F 91% 29.77 in 10.0 mi South 3.5 mph - N/A   Clear
9:33 PM 73.4 °F - 71.6 °F 94% 29.79 in 10.0 mi SSW 3.5 mph - N/A Thunderstorm Thunderstorm
9:56 PM 73.0 °F - 70.0 °F 90% 29.80 in 6.0 mi NNW 17.3 mph 33.4 mph 0.02 in Rain , Thunderstorm Heavy Thunderstorms and Rain
10:11 PM 71.6 °F - 69.8 °F 94% 29.83 in - West 8.1 mph - 0.38 in Rain , Thunderstorm Heavy Thunderstorms and Rain
10:27 PM 71.6 °F - 69.8 °F 94% 29.81 in - WSW 6.9 mph - 0.44 in Rain , Thunderstorm Light Thunderstorms and Rain
10:56 PM 72.0 °F - 70.0 °F 93% 29.75 in 7.0 mi SW 8.1 mph - 0.46 in Rain , Thunderstorm Light Thunderstorms and Rain
11:56 PM 72.0 °F - 70.0 °F 93% 29.79 in 10.0 mi Variable 3.5 mph - 0.08 in Rain Light Rain